Flag for New Zealand Weather past 2 weeks in Wellington, New Zealand

Now
63 °F

Mild.


Feels Like: 63 °F
Forecast: 56 / 65 °F
Wind: 7 mph from Northeast

Location: Wellington Airport

Current Time: Mar 30, 2015 at 2:58:57 AM

Latest Report: Mar 30, 2015 at 2:30 AM


Visibility: N/A

Pressure: 29.71 "Hg

Humidity: 73%

Dew point: 54 °F

Location of WellingtonLocation

Historic Weather in Wellington — Graph

°F

Wellington temperature yesterday

Maximum temperature yesterday: 70 °F (at 12:30 PM)
Minimum temperature yesterday: 63 °F (at 7:00 AM)
Average temperature yesterday: 65 °F

Past Weeks' High & Low Weather Summary

 TemperatureHumidityPressure
High70 °F (Mar 26, 12:00 PM)100% (Mar 16, 9:30 AM)30.33 "Hg (Mar 16, 9:30 AM)
Low48 °F (Mar 21, 3:30 AM)48% (Mar 20, 9:00 AM)29.42 "Hg (Mar 16, 3:30 PM)
Average60 °F79%29.95 "Hg
* Reported Mar 15 1:00 AM — Mar 30 1:30 AM, Wellington, Weather by CustomWeather, © 2015

Note: Actual official high and low records may vary slightly from our data, if they occured in-between our weather recording intervals... More about our weather records

Advertising

Wellington weather history for previous 24 hours

 ConditionsComfort  
Time TempWeatherWind HumidityBarometerVisibility
1:30 AM
Mon, Mar 30
61 °FCool.7 mph77%29.71 "HgN/A
1:00 AM63 °FMild.12 mph73%29.71 "HgN/A
12:30 AM63 °FMild.12 mph73%29.71 "HgN/A
12:00 AM63 °FMild.13 mph73%29.71 "HgN/A
11:30 PM
Sun, Mar 29
63 °FMild.13 mph73%29.71 "HgN/A
11:00 PM63 °FMild.14 mph73%29.71 "HgN/A
10:30 PM63 °FMild.13 mph73%29.71 "HgN/A
10:00 PM63 °FPassing clouds.18 mph77%29.71 "HgN/A
9:30 PM63 °FPassing clouds.17 mph73%29.68 "HgN/A
9:00 PM63 °FPassing clouds.18 mph73%29.68 "HgN/A
8:30 PM63 °FPassing clouds.21 mph77%29.68 "HgN/A
8:00 PM63 °FMild.21 mph73%29.65 "HgN/A
7:30 PM63 °FMild.15 mph73%29.68 "HgN/A
7:00 PM64 °FPartly sunny.16 mph73%29.68 "HgN/A
6:30 PM64 °FScattered clouds.20 mph73%29.68 "HgN/A
6:00 PM64 °FPassing clouds.20 mph78%29.68 "HgN/A
5:30 PM64 °FLight rain. Partly sunny.25 mph78%29.68 "Hg6 mi
5:00 PM66 °FPartly sunny.23 mph68%29.68 "HgN/A
4:30 PM66 °FPartly sunny.20 mph73%29.71 "HgN/A
4:00 PM68 °FPartly sunny.21 mph64%29.71 "HgN/A
3:30 PM68 °FPartly sunny.23 mph64%29.71 "HgN/A
3:00 PM68 °FPartly sunny.21 mph64%29.71 "HgN/A
2:30 PM68 °FPassing clouds.17 mph64%29.71 "HgN/A
2:00 PM70 °FScattered clouds.18 mph57%29.71 "HgN/A
1:30 PM70 °FBroken clouds.20 mph64%29.74 "HgN/A
1:00 PM70 °FPartly sunny.18 mph64%29.74 "HgN/A
12:30 PM70 °FPartly sunny.18 mph69%29.74 "HgN/A
12:00 PM68 °FPartly sunny.20 mph69%29.74 "HgN/A
11:30 AM68 °FScattered clouds.18 mph69%29.74 "HgN/A
11:00 AM68 °FScattered clouds.18 mph69%29.74 "HgN/A
10:30 AM66 °FPartly sunny.17 mph78%29.77 "HgN/A
9:30 AM64 °FPartly sunny.13 mph83%29.77 "HgN/A
9:00 AM64 °FPartly sunny.14 mph83%29.77 "HgN/A
8:30 AM63 °FPartly sunny.13 mph88%29.77 "HgN/A
8:00 AM63 °FCloudy.12 mph88%29.77 "HgN/A
7:30 AM63 °FPassing clouds.13 mph88%29.77 "HgN/A
7:00 AM63 °FLight rain. Partly cloudy.16 mph88%29.77 "HgN/A
6:30 AM64 °FSprinkles. Partly cloudy.15 mph83%29.74 "HgN/A
6:00 AM64 °FPassing clouds.14 mph83%29.77 "HgN/A
5:30 AM64 °FPartly cloudy.13 mph83%29.77 "HgN/A
5:00 AM64 °FPartly cloudy.15 mph83%29.77 "HgN/A
4:30 AM64 °FPassing clouds.15 mph83%29.77 "HgN/A
4:00 AM64 °FOvercast.15 mph83%29.80 "HgN/A
3:30 AM64 °FPartly cloudy.16 mph83%29.80 "HgN/A
3:00 AM64 °FPartly cloudy.15 mph88%29.80 "HgN/A
2:30 AM64 °FPartly cloudy.14 mph88%29.80 "HgN/A
2:00 AM64 °FPassing clouds.17 mph83%29.80 "HgN/A
Weather by CustomWeather, © 2015

See weather overviewHow to use our weather pages